Hearne, TX

1:58 PM CST on November 20, 2019 (GMT -0600)
Hearne

Weather History for KLHB - September, 2019

Change the Weather History Date:

Sunday, September 1, 2019

  Actual Average (KCLL) Record (KCLL)
Temperature  
Mean Temperature 84 °F -  
Max Temperature 97 °F 92 °F 108 °F (2000)
Min Temperature 72 °F 70 °F 58 °F (1915)
Cooling Degree Days 20    
Growing Degree Days 34 (Base 50)    
Moisture  
Dew Point 70 °F    
Average Humidity 64    
Maximum Humidity 91    
Minimum Humidity 37    
Precipitation  
Precipitation 0.00 in - - ()
Sea Level Pressure  
Sea Level Pressure 30.03 in    
Wind  
Wind Speed 2 mph ()    
Max Wind Speed 10 mph    
Max Gust Speed -    
Visibility 10.0 miles    
Events      
Averages and records for this station are not official NWS values.
T = Trace of Precipitation, MM = Missing Value Source: Averaged Metar Reports

Daily Weather History Graph

Daily Weather History Graph

Search for Another Location

Airport or City:

Astronomy

Sep. 01, 2019 Rise Set
Actual Time 7:02 AM CDT 7:49 PM CDT
Civil Twilight 6:38 AM CDT 8:14 PM CDT
Nautical Twilight 6:09 AM CDT 8:43 PM CDT
Astronomical Twilight 5:39 AM CDT 9:12 PM CDT
Moon 9:26 AM CDT (9/1) 9:48 PM CDT (9/1)
Length of Visible Light 13h 36m
Length of Day
12h 47m
Waxing Crescent, 8% of the Moon is Illuminated
Sep 1
Waxing Crescent
Sep 5
First Quarter
Sep 13
Full
Sep 21
Last Quarter
Sep 28
New

Hourly Weather History & Observations

Time (CDT) Temp. Heat Index Dew Point Humidity Pressure Visibility Wind Dir Wind Speed Gust Speed Precip Events Conditions
12:15 AM 77.9 °F - 69.1 °F 74% 30.04 in 10.0 mi Calm Calm - N/A   Clear
12:35 AM 77.9 °F - 69.3 °F 75% 30.04 in 10.0 mi Calm Calm - N/A   Clear
12:55 AM 76.8 °F - 69.1 °F 77% 30.03 in 10.0 mi Calm Calm - N/A   Clear
1:15 AM 75.9 °F - 69.1 °F 79% 30.03 in 10.0 mi Calm Calm - N/A   Clear
1:35 AM 75.2 °F - 68.9 °F 81% 30.03 in 10.0 mi Calm Calm - N/A   Clear
1:55 AM 75.4 °F - 69.1 °F 81% 30.03 in 10.0 mi Calm Calm - N/A   Clear
2:15 AM 74.7 °F - 68.9 °F 82% 30.04 in 10.0 mi Calm Calm - N/A   Clear
2:35 AM 74.7 °F - 69.3 °F 83% 30.04 in 10.0 mi Calm Calm - N/A   Clear
2:55 AM 74.5 °F - 69.1 °F 83% 30.03 in 10.0 mi Calm Calm - N/A   Clear
3:15 AM 73.6 °F - 68.9 °F 85% 30.03 in 10.0 mi Calm Calm - N/A   Clear
3:35 AM 73.4 °F - 68.9 °F 86% 30.03 in 10.0 mi Calm Calm - N/A   Clear
3:55 AM 74.1 °F - 69.4 °F 85% 30.03 in 10.0 mi Calm Calm - N/A   Clear
4:15 AM 73.6 °F - 69.4 °F 87% 30.03 in 10.0 mi Calm Calm - N/A   Clear
4:35 AM 73.4 °F - 69.1 °F 86% 30.03 in 10.0 mi Calm Calm - N/A   Clear
4:55 AM 72.9 °F - 68.9 °F 87% 30.03 in 10.0 mi Calm Calm - N/A   Clear
5:15 AM 72.5 °F - 69.1 °F 89% 30.03 in 10.0 mi Calm Calm - N/A   Clear
5:35 AM 73.2 °F - 69.3 °F 87% 30.04 in 10.0 mi Calm Calm - N/A   Clear
5:55 AM 73.4 °F - 69.6 °F 88% 30.04 in 10.0 mi Calm Calm - N/A   Clear
6:15 AM 72.5 °F - 68.9 °F 88% 30.04 in 10.0 mi Calm Calm - N/A   Clear
6:35 AM 72.7 °F - 69.1 °F 88% 30.05 in 10.0 mi Calm Calm - N/A   Clear
6:55 AM 72.0 °F - 68.9 °F 90% 30.05 in 10.0 mi Calm Calm - N/A   Clear
7:15 AM 72.0 °F - 68.9 °F 90% 30.05 in 10.0 mi Calm Calm - N/A   Clear
7:35 AM 72.5 °F - 69.8 °F 91% 30.07 in 10.0 mi Calm Calm - N/A   Clear
7:55 AM 73.4 °F - 70.3 °F 90% 30.08 in 10.0 mi Calm Calm - N/A   Clear
8:15 AM 75.4 °F - 70.3 °F 84% 30.08 in 10.0 mi Calm Calm - N/A   Mostly Cloudy
8:35 AM 77.2 °F - 70.9 °F 81% 30.08 in 10.0 mi Calm Calm - N/A   Scattered Clouds
8:55 AM 79.5 °F - 71.2 °F 76% 30.09 in 10.0 mi Calm Calm - N/A   Clear
9:15 AM 81.9 °F 86.2 °F 71.2 °F 70% 30.09 in 10.0 mi Calm Calm - N/A   Clear
9:35 AM 84.0 °F 89.3 °F 71.8 °F 66% 30.09 in 10.0 mi Calm Calm - N/A   Clear
9:55 AM 85.5 °F 91.8 °F 72.5 °F 65% 30.09 in 10.0 mi WNW 4.6 mph - N/A   Clear
10:15 AM 86.9 °F 94.1 °F 72.9 °F 63% 30.09 in 10.0 mi NNW 4.6 mph - N/A   Clear
10:35 AM 87.1 °F 94.1 °F 72.9 °F 62% 30.09 in 10.0 mi NNW 3.5 mph - N/A   Clear
10:55 AM 88.2 °F 95.5 °F 72.7 °F 60% 30.09 in 10.0 mi Calm Calm - N/A   Clear
11:15 AM 89.8 °F 97.0 °F 72.1 °F 56% 30.08 in 10.0 mi Calm Calm - N/A   Clear
11:35 AM 90.5 °F 97.5 °F 71.8 °F 54% 30.08 in 10.0 mi Calm Calm - N/A   Mostly Cloudy
11:55 AM 91.9 °F 99.0 °F 71.6 °F 51% 30.07 in 10.0 mi Calm Calm - N/A   Overcast
12:15 PM 90.3 °F 97.2 °F 71.4 °F 54% 30.07 in 10.0 mi Calm Calm - N/A   Overcast
12:35 PM 93.0 °F 100.1 °F 71.2 °F 49% 30.06 in 10.0 mi SW 3.5 mph - N/A   Mostly Cloudy
12:55 PM 93.0 °F 99.0 °F 70.3 °F 47% 30.05 in 10.0 mi Calm Calm - N/A   Scattered Clouds
1:15 PM 93.7 °F 99.9 °F 70.0 °F 46% 30.04 in 10.0 mi Calm Calm - N/A   Mostly Cloudy
1:35 PM 93.6 °F 99.5 °F 69.8 °F 46% 30.03 in 10.0 mi West 4.6 mph - N/A   Mostly Cloudy
1:55 PM 93.7 °F 98.8 °F 69.1 °F 44% 30.03 in 10.0 mi NNW 8.1 mph - N/A   Mostly Cloudy
2:35 PM 97.2 °F 103.2 °F 69.3 °F 40% 30.01 in 10.0 mi NNW 9.2 mph - N/A   Mostly Cloudy
2:55 PM 94.6 °F 100.0 °F 68.9 °F 43% 30.00 in 10.0 mi NE 4.6 mph - N/A   Mostly Cloudy
3:15 PM 95.0 °F 100.1 °F 68.5 °F 42% 29.99 in 10.0 mi NE 5.8 mph - N/A   Scattered Clouds
3:35 PM 95.2 °F 100.5 °F 68.9 °F 42% 29.99 in 10.0 mi NNE 10.4 mph - N/A   Mostly Cloudy
3:55 PM 97.0 °F 102.2 °F 68.5 °F 39% 29.98 in 10.0 mi NNE 9.2 mph - N/A   Scattered Clouds
4:15 PM 97.5 °F 103.3 °F 68.9 °F 39% 29.98 in 10.0 mi East 4.6 mph - N/A   Clear
4:35 PM 97.7 °F 102.4 °F 67.6 °F 37% 29.97 in 10.0 mi ESE 8.1 mph - N/A   Clear
4:55 PM 95.4 °F 100.2 °F 68.2 °F 41% 29.97 in 10.0 mi SE 8.1 mph - N/A   Scattered Clouds
5:15 PM 95.5 °F 100.6 °F 68.4 °F 41% 29.96 in 10.0 mi ESE 5.8 mph - N/A   Scattered Clouds
5:35 PM 96.3 °F 100.2 °F 67.1 °F 38% 29.96 in 10.0 mi East 6.9 mph - N/A   Clear
5:55 PM 96.3 °F 99.7 °F 66.2 °F 37% 29.96 in 10.0 mi NE 5.8 mph - N/A   Clear
6:15 PM 95.9 °F 100.1 °F 67.3 °F 39% 29.96 in 10.0 mi East 4.6 mph - N/A   Clear
6:35 PM 95.5 °F 99.4 °F 67.1 °F 39% 29.95 in 10.0 mi NE 6.9 mph - N/A   Clear
6:55 PM 95.0 °F 99.5 °F 68.0 °F 41% 29.95 in 10.0 mi NE 8.1 mph - N/A   Clear
7:15 PM 93.2 °F 98.3 °F 69.3 °F 45% 29.96 in 10.0 mi NE 9.2 mph - N/A   Clear
7:35 PM 91.6 °F 97.2 °F 69.8 °F 49% 29.96 in 10.0 mi NE 8.1 mph - N/A   Clear
7:55 PM 90.5 °F 96.0 °F 70.0 °F 51% 29.97 in 10.0 mi NE 4.6 mph - N/A   Clear
8:15 PM 89.2 °F 94.5 °F 70.2 °F 53% 29.97 in 10.0 mi NE 5.8 mph - N/A   Clear
8:35 PM 88.7 °F 93.9 °F 70.2 °F 54% 29.97 in 10.0 mi NE 5.8 mph - N/A   Clear
8:55 PM 87.8 °F 92.6 °F 70.0 °F 55% 29.98 in 10.0 mi NE 5.8 mph - N/A   Clear
9:15 PM 87.1 °F 92.0 °F 70.0 °F 57% 29.99 in 10.0 mi NE 5.8 mph - N/A   Clear
9:35 PM 86.4 °F 91.1 °F 70.2 °F 58% 29.99 in 10.0 mi NE 5.8 mph - N/A   Clear
9:55 PM 86.0 °F 90.7 °F 70.2 °F 59% 30.00 in 10.0 mi NE 5.8 mph - N/A   Clear
10:15 PM 85.6 °F 90.4 °F 70.2 °F 60% 30.01 in 10.0 mi ENE 4.6 mph - N/A   Clear
10:35 PM 85.1 °F 89.8 °F 70.2 °F 61% 30.01 in 10.0 mi ENE 3.5 mph - N/A   Clear
10:55 PM 84.6 °F 88.8 °F 70.0 °F 61% 30.03 in 10.0 mi ENE 4.6 mph - N/A   Clear
11:15 PM 84.4 °F 88.5 °F 69.6 °F 61% 30.03 in 10.0 mi East 3.5 mph - N/A   Clear
11:35 PM 83.5 °F 87.2 °F 69.4 °F 62% 30.03 in 10.0 mi East 3.5 mph - N/A   Clear
11:55 PM 82.6 °F 86.4 °F 69.6 °F 65% 30.03 in 10.0 mi Calm Calm - N/A   Clear